Regional Weather Roundup
Issued by NWS Sioux Falls, SD

Home | Current Version | Previous Version | Text Only | Print | Product List | Glossary Off
Versions: 1 2 3 4 5 6 7 8 9 10 11 12 13 14 15 16 17 18 19 20 21 22 23 24 25 26 27 28 29 30 31 32 33 34 35 36 37 38 39 40 41 42 43 44 45 46 47 48 49 50

000
ASUS43 KFSD 262310
RWRFSD

WEATHER ROUNDUP FOR SE SOUTH DAKOTA/SW MINNESOTA/NW IOWA
NATIONAL WEATHER SERVICE SIOUX FALLS SD
500 PM CST WED NOV 26 2014

NOTE: "FAIR" INDICATES FEW OR NO CLOUDS BELOW 12,000 FEET WITH NO
SIGNIFICANT WEATHER AND OR OBSTRUCTIONS TO VISIBILITY.


SDZ038>040-050-052>070-270000-
SOUTHEAST SOUTH DAKOTA

CITY           SKY/WX    TMP DP  RH WIND       PRES   REMARKS
CHAMBERLAIN    CLOUDY    20   9  62 NE8       30.38S WCI  10
HURON          PTCLDY     9   0  67 N8        30.43R WCI  -3
MADISON        CLOUDY    12   7  79 N16       30.34R WCI  -4
MITCHELL       CLOUDY    14   6  70 N16       30.42R WCI  -2
SIOUX FALLS    PTCLDY    14   7  73 N9        30.33S WCI   2
WINNER         FAIR      24  15  68 NE5       30.35R WCI  18
YANKTON        PTCLDY    16  10  79 NW7       30.39R WCI   6
$$

MNZ071-072-080-081-089-090-097-098-270000-
SOUTHWEST MINNESOTA

CITY           SKY/WX    TMP DP  RH WIND       PRES   REMARKS
FAIRMONT       CLOUDY    19  14  79 NW15G23   30.25R WCI   5
JACKSON        CLOUDY    18  14  86 NW24G30   30.27R WCI   0
LUVERNE        CLEAR     16  10  79 N10       30.34R WCI   3
MARSHALL       CLOUDY    10   1  67 N20       30.35S WCI  -8
MONTEVIDEO     CLOUDY     9   5  85 N15G22    30.38R WCI  -8
PIPESTONE      CLEAR     12   7  79 N7        30.31R WCI   2
REDWOOD FALLS  CLOUDY    13   7  77 NW14      30.34R WCI  -2
TRACY          FLURRIES  11   8  85 NW16G23   30.34R WCI  -5
WINDOM         LGT SNOW  12  10  92 NW21      30.30R WCI  -6
WORTHINGTON    CLOUDY    14  10  85 NW21      30.30R WCI  -4
$$

IAZ001>003-012>014-020>022-031-032-NEZ013-014-SDZ071-270000-
NORTHWEST IOWA

CITY           SKY/WX    TMP DP  RH WIND       PRES   REMARKS
CHEROKEE       CLOUDY    21  18  88 N16G24    30.30R WCI   7
DENISON        CLOUDY    23  19  86 N16G23    30.24R WCI  10
ESTHERVILLE    CLOUDY    17  14  88 N20       30.26R WCI   1
LE MARS        CLOUDY    21  16  79 N16G23    30.34R WCI   7
ORANGE CITY    CLOUDY    19  14  79 N16G22    30.31R WCI   5
SHELDON        CLOUDY    18  14  86 N18G24    30.29R WCI   2
SIOUX CITY     CLOUDY    22  15  75 NW26G35   30.33R WCI   5
SPENCER        CLOUDY    19  14  81 N18       30.28R WCI   4
STORM LAKE     CLOUDY    21  18  86 N21       30.26R WCI   6
$$

ABBREVIATIONS USED IN REMARKS
   TC - TEMPERATURE IN CELSIUS
  WCI - WIND CHILL INDEX
   HX - HEAT INDEX
  VSB - VISIBILITY



USA.gov is the U.S. government's official web portal to all federal, state and local government web resources and services.